Date String (YYYY-MM-DD hh:mm:ss) UTC,Instrument flags,Ambient pressure (hPa),Sample flow (lpm),Bypass flow (lpm),Sample temperature (°C),Ambient temperature (°C),ASC tube jacket temperature (°C),LED temperature (°C),Box temperature (°C),Sample RH (%),Span deviation,Mass concentration (μg/m³),Mass concentration (μg/m³),Mass concentration (μg/m³)
DateTimeUTC,F1_M11,P_M11,Q1_M11,Q2_M11,T1_M11,T2_M11,T3_M11,T4_M11,T5_M11,U1_M11,ZSPAN_M11,X0_M11,X2_M11,X1_M11
2021-11-06 20:00:00,,0825.3,5.00,0.00,30.7,29.8,00.0,39.7,32.5,07.0,0000.0,0011.93,0002.95,0001.74
2021-11-06 20:01:00,,0825.3,5.00,0.00,30.8,29.9,00.0,39.7,32.5,07.2,0000.0,0012.28,0003.07,0001.78
2021-11-06 20:02:00,,0825.3,5.01,0.00,30.8,29.9,00.0,39.7,32.6,07.6,0000.0,0012.56,0003.10,0001.85
2021-11-06 20:03:00,,0825.3,4.99,0.00,30.8,30.0,00.0,39.7,32.6,07.7,0000.0,0012.67,0003.14,0001.94
2021-11-06 20:04:00,,0825.4,5.01,0.00,30.9,30.0,00.0,39.7,32.6,07.7,0000.0,0012.24,0003.27,0002.09
2021-11-06 20:05:00,,0825.4,5.00,0.00,30.9,30.1,00.0,39.8,32.6,07.7,0000.0,0012.32,0003.40,0002.22
2021-11-06 20:06:00,,0825.4,5.02,0.00,30.9,30.1,00.0,39.8,32.7,07.9,0000.0,0011.48,0003.46,0002.37
2021-11-06 20:07:00,,0825.4,4.99,0.00,30.9,30.2,00.0,39.8,32.7,08.0,0000.0,0011.54,0003.54,0002.51
2021-11-06 20:08:00,,0825.4,4.99,0.00,31.0,30.2,00.0,39.8,32.7,07.7,0000.0,0011.91,0003.70,0002.69
2021-11-06 20:09:00,,0825.4,5.00,0.00,31.0,29.9,00.0,39.9,32.7,07.6,0000.0,0012.52,0003.87,0002.84
2021-11-06 20:10:00,,0825.4,5.01,0.00,30.9,27.8,00.0,39.8,32.2,08.0,0000.0,0012.40,0003.91,0002.95
2021-11-06 20:11:00,,0825.4,5.00,0.00,30.7,26.5,00.0,39.8,32.0,08.1,0000.0,0013.70,0003.91,0003.02
2021-11-06 20:12:00,,0825.3,4.99,0.00,30.6,26.7,00.0,39.7,32.0,08.5,0000.0,0013.81,0003.97,0003.14
2021-11-06 20:13:00,,0825.4,5.01,0.00,30.5,27.1,00.0,39.7,31.9,08.5,0000.0,0013.79,0004.13,0003.22
2021-11-06 20:14:00,,0825.4,4.99,0.00,30.5,27.6,00.0,39.6,31.9,08.6,0000.0,0014.48,0004.23,0003.27
2021-11-06 20:15:00,,0825.3,5.00,0.00,30.5,28.1,00.0,39.6,32.0,08.6,0000.0,0014.10,0004.29,0003.33
2021-11-06 20:16:00,,0825.4,5.01,0.00,30.5,28.4,00.0,39.6,32.0,08.2,0000.0,0014.19,0004.29,0003.38
2021-11-06 20:17:00,,0825.4,4.99,0.00,30.5,28.7,00.0,39.6,32.1,08.0,0000.0,0014.34,0004.37,0003.39
2021-11-06 20:18:00,,0825.4,5.00,0.00,30.5,29.0,00.0,39.5,32.1,08.0,0000.0,0014.86,0004.43,0003.41
2021-11-06 20:19:00,,0825.4,5.00,0.00,30.5,29.2,00.0,39.5,32.2,08.1,0000.0,0015.43,0004.44,0003.42
2021-11-06 20:20:00,,0825.3,5.00,0.00,30.5,29.4,00.0,39.5,32.3,07.7,0000.0,0015.43,0004.44,0003.43
2021-11-06 20:21:00,,0825.2,5.01,0.00,30.6,29.5,00.0,39.5,32.3,07.3,0000.0,0015.61,0004.48,0003.42
2021-11-06 20:22:00,,0825.1,5.00,0.00,30.6,29.6,00.0,39.6,32.4,06.2,0000.0,0014.59,0004.44,0003.37
2021-11-06 20:23:00,,0825.1,5.00,0.00,30.6,29.7,00.0,39.6,32.4,06.5,0000.0,0014.12,0004.31,0003.27
2021-11-06 20:24:00,,0825.0,5.00,0.00,30.7,29.8,00.0,39.6,32.5,06.4,0000.0,0013.64,0004.13,0003.17
2021-11-06 20:25:00,,0825.0,5.01,0.00,30.7,29.9,00.0,39.6,32.5,06.2,0000.0,0012.90,0004.00,0003.05
2021-11-06 20:26:00,,0825.0,5.00,0.00,30.8,30.0,00.0,39.6,32.5,06.5,0000.0,0013.73,0003.92,0002.89
2021-11-06 20:27:00,,0825.0,5.01,0.00,30.8,30.0,00.0,39.7,32.6,06.5,0000.0,0014.46,0003.88,0002.76
2021-11-06 20:28:00,,0825.1,5.01,0.00,30.8,30.1,00.0,39.7,32.6,06.8,0000.0,0014.35,0003.75,0002.66
2021-11-06 20:29:00,,0825.1,5.01,0.00,30.8,29.3,00.0,39.7,32.5,07.2,0000.0,0014.42,0003.63,0002.56
2021-11-06 20:30:00,,0825.0,4.99,0.00,30.7,26.9,00.0,39.7,32.0,07.4,0000.0,0014.08,0003.52,0002.47
2021-11-06 20:31:00,,0825.0,5.00,0.00,30.6,26.2,00.0,39.6,31.9,07.6,0000.0,0014.54,0003.45,0002.42
2021-11-06 20:32:00,,0824.9,5.01,0.00,30.5,26.6,00.0,39.6,31.9,07.5,0000.0,0014.45,0003.35,0002.36
2021-11-06 20:33:00,,0824.9,5.00,0.00,30.4,27.1,00.0,39.5,31.9,07.9,0000.0,0014.44,0003.35,0002.35
2021-11-06 20:34:00,,0824.9,5.01,0.00,30.3,27.6,00.0,39.5,31.9,07.9,0000.0,0014.43,0003.38,0002.39
2021-11-06 20:35:00,,0824.9,4.99,0.00,30.3,28.1,00.0,39.4,31.9,07.6,0000.0,0015.44,0003.41,0002.42
2021-11-06 20:36:00,,0824.9,5.01,0.00,30.3,28.4,00.0,39.4,32.0,07.0,0000.0,0016.74,0003.44,0002.42
2021-11-06 20:37:00,,0824.9,4.99,0.00,30.3,28.7,00.0,39.4,32.0,06.7,0000.0,0016.59,0003.42,0002.40
2021-11-06 20:38:00,,0824.9,5.00,0.00,30.4,29.0,00.0,39.4,32.1,07.3,0000.0,0015.68,0003.40,0002.38
2021-11-06 20:39:00,,0824.9,5.02,0.00,30.4,29.1,00.0,39.4,32.1,07.9,0000.0,0015.75,0003.41,0002.38
2021-11-06 20:40:00,,0825.0,4.99,0.00,30.4,29.3,00.0,39.4,32.2,08.0,0000.0,0016.83,0003.44,0002.39
2021-11-06 20:41:00,,0825.0,4.99,0.00,30.5,29.5,00.0,39.4,32.2,07.4,0000.0,0016.97,0003.46,0002.39
2021-11-06 20:42:00,,0825.1,4.99,0.00,30.5,29.6,00.0,39.4,32.3,07.3,0000.0,0016.57,0003.43,0002.36
2021-11-06 20:43:00,,0825.0,5.01,0.00,30.6,29.7,00.0,39.5,32.3,07.3,0000.0,0016.78,0003.46,0002.34
2021-11-06 20:44:00,,0824.9,5.02,0.00,30.6,29.8,00.0,39.5,32.4,07.7,0000.0,0017.38,0003.46,0002.32
2021-11-06 20:45:00,,0824.9,5.00,0.00,30.6,29.9,00.0,39.5,32.4,07.6,0000.0,0017.46,0003.46,0002.31
2021-11-06 20:46:00,,0824.9,4.99,0.00,30.7,29.9,00.0,39.5,32.5,06.8,0000.0,0016.40,0003.41,0002.25
2021-11-06 20:47:00,,0824.9,4.99,0.00,30.7,30.0,00.0,39.5,32.5,05.9,0000.0,0015.23,0003.33,0002.20
2021-11-06 20:48:00,,0824.9,4.99,0.00,30.7,30.0,00.0,39.6,32.6,06.1,0000.0,0014.85,0003.27,0002.14
2021-11-06 20:49:00,,0824.9,5.01,0.00,30.7,28.6,00.0,39.6,32.3,06.1,0000.0,0014.30,0003.22,0002.10
2021-11-06 20:50:00,,0824.9,5.00,0.00,30.6,26.5,00.0,39.6,31.8,06.2,0000.0,0014.57,0003.19,0002.04
2021-11-06 20:51:00,,0824.9,5.00,0.00,30.4,26.2,00.0,39.5,31.8,06.4,0000.0,0014.07,0003.12,0001.96
2021-11-06 20:52:00,,0824.9,5.01,0.00,30.4,26.7,00.0,39.5,31.8,06.8,0000.0,0013.24,0003.12,0001.90
2021-11-06 20:53:00,,0824.9,5.00,0.00,30.3,27.2,00.0,39.4,31.8,07.0,0000.0,0013.46,0003.08,0001.85
2021-11-06 20:54:00,,0824.9,5.01,0.00,30.2,27.7,00.0,39.4,31.8,07.0,0000.0,0013.09,0003.04,0001.81
2021-11-06 20:55:00,,0824.9,4.99,0.00,30.2,28.1,00.0,39.3,31.9,07.0,0000.0,0012.71,0002.98,0001.78
2021-11-06 20:56:00,,0824.9,5.01,0.00,30.2,28.4,00.0,39.3,31.9,07.0,0000.0,0012.90,0002.91,0001.74
2021-11-06 20:57:00,,0824.9,4.98,0.00,30.3,28.7,00.0,39.3,32.0,06.9,0000.0,0013.04,0002.93,0001.72
2021-11-06 20:58:00,,0825.0,5.01,0.00,30.3,28.9,00.0,39.3,32.0,06.8,0000.0,0012.91,0003.00,0001.74
2021-11-06 20:59:00,,0825.1,5.00,0.00,30.3,29.1,00.0,39.3,32.1,06.9,0000.0,0012.73,0003.03,0001.79
